Marion, SC

5:55 PM EDT on April 26, 2017 (GMT -0400)
Marion County

Weather History for KMAO - March, 2013

Change the Weather History Date:

Wednesday, March 13, 2013

  Actual Average (KFLO) Record (KFLO)
Temperature  
Mean Temperature 50 °F -  
Max Temperature 62 °F 69 °F 88 °F (1990)
Min Temperature 37 °F 46 °F 21 °F (1998)
Degree Days  
Heating Degree Days 16    
Moisture  
Dew Point 32 °F    
Average Humidity 50    
Maximum Humidity 100    
Minimum Humidity 25    
Precipitation  
Precipitation 0.00 in - - ()
Sea Level Pressure  
Sea Level Pressure 30.03 in    
Wind  
Wind Speed 6 mph (WNW)    
Max Wind Speed 18 mph    
Max Gust Speed 30 mph    
Visibility 10 miles    
Events      
Averages and records for this station are not official NWS values.
T = Trace of Precipitation, MM = Missing Value Source: NWS Daily Summary

Daily Weather History Graph

Daily Weather History Graph

Search for Another Location

Airport or City:

Trip Planner

Search our weather history database for the weather conditions in past years. The results will help you decide how hot, cold, wet, or windy it might be!

Date:

Astronomy

Mar. 13, 2013 Rise Set
Actual Time 7:30 AM EDT 7:23 PM EDT
Civil Twilight 7:05 AM EDT 7:48 PM EDT
Nautical Twilight 6:36 AM EDT 8:17 PM EDT
Astronomical Twilight 6:06 AM EDT 8:47 PM EDT
Moon 8:15 AM EDT (3/13) 9:30 PM EDT (3/13)
Length of Visible Light 12h 43m
Length of Day
11h 53m
Waxing Crescent, 4% of the Moon is Illuminated
Mar 13
Waxing Crescent
Mar 19
First Quarter
Mar 27
Full
Apr 3
Last Quarter
Apr 10
New

Hourly Weather History & Observations

Time (EDT) Temp. Windchill Dew Point Humidity Pressure Visibility Wind Dir Wind Speed Gust Speed Precip Events Conditions
12:15 AM 53.6 °F - 42.8 °F 67% 29.94 in 10.0 mi NW 3.5 mph - N/A   Clear
12:35 AM 53.6 °F - 41.0 °F 62% 29.95 in 10.0 mi NNW 9.2 mph - N/A   Clear
12:55 AM 53.6 °F - 37.4 °F 54% 29.95 in 10.0 mi NNW 6.9 mph - N/A   Clear
1:15 AM 53.6 °F - 39.2 °F 58% 29.96 in 10.0 mi NNW 4.6 mph - N/A   Clear
1:55 AM 51.8 °F - 37.4 °F 58% 29.98 in 10.0 mi NW 4.6 mph - N/A   Clear
2:15 AM 51.8 °F - 35.6 °F 54% 29.98 in 10.0 mi NNW 4.6 mph - N/A   Clear
2:35 AM 50.0 °F - 37.4 °F 62% 29.98 in 10.0 mi NW 3.5 mph - N/A   Clear
2:55 AM 44.6 °F - 37.4 °F 76% 29.99 in 10.0 mi Calm Calm - N/A   Clear
3:15 AM 42.8 °F 41.1 °F 39.2 °F 87% 29.99 in 10.0 mi NNW 3.5 mph - N/A   Clear
3:35 AM 46.4 °F 44.3 °F 35.6 °F 66% 30.00 in 10.0 mi NW 4.6 mph - N/A   Clear
3:55 AM 46.4 °F 43.5 °F 35.6 °F 66% 30.00 in 10.0 mi NW 5.8 mph - N/A   Clear
4:15 AM 46.4 °F 44.3 °F 35.6 °F 66% 30.00 in 10.0 mi NW 4.6 mph - N/A   Clear
4:35 AM 44.6 °F 43.1 °F 35.6 °F 71% 30.01 in 10.0 mi NW 3.5 mph - N/A   Clear
4:55 AM 44.6 °F 42.2 °F 35.6 °F 71% 30.01 in 10.0 mi NW 4.6 mph - N/A   Clear
5:15 AM 44.6 °F 43.1 °F 35.6 °F 71% 30.02 in 10.0 mi NW 3.5 mph - N/A   Clear
5:35 AM 42.8 °F 40.1 °F 35.6 °F 76% 30.03 in 10.0 mi NW 4.6 mph - N/A   Clear
5:55 AM 42.8 °F 40.1 °F 35.6 °F 76% 30.04 in 10.0 mi NW 4.6 mph - N/A   Clear
6:15 AM 42.8 °F 40.1 °F 35.6 °F 76% 30.05 in 10.0 mi NW 4.6 mph - N/A   Clear
6:35 AM 42.8 °F 40.1 °F 33.8 °F 70% 30.05 in 10.0 mi NNW 4.6 mph - N/A   Clear
6:55 AM 42.8 °F - 33.8 °F 70% 30.06 in 10.0 mi Calm Calm - N/A   Clear
7:15 AM 39.2 °F - 33.8 °F 81% 30.07 in 10.0 mi Calm Calm - N/A   Clear
7:35 AM 37.4 °F - 35.6 °F 93% 30.07 in 10.0 mi Calm Calm - N/A   Clear
7:55 AM 37.4 °F - 37.4 °F 100% 30.08 in 10.0 mi Calm Calm - N/A   Clear
8:15 AM 39.2 °F 37.0 °F 35.6 °F 87% 30.09 in 10.0 mi WNW 3.5 mph - N/A   Clear
8:35 AM 42.8 °F 40.1 °F 35.6 °F 76% 30.10 in 10.0 mi WNW 4.6 mph - N/A   Clear
8:55 AM 44.6 °F 42.2 °F 35.6 °F 71% 30.10 in 10.0 mi NW 4.6 mph - N/A   Clear
9:15 AM 46.4 °F 43.5 °F 35.6 °F 66% 30.11 in 10.0 mi NW 5.8 mph - N/A   Clear
9:35 AM 48.2 °F - 33.8 °F 58% 30.11 in 10.0 mi North 3.5 mph - N/A   Clear
9:55 AM 50.0 °F - 35.6 °F 58% 30.11 in 10.0 mi Calm Calm - N/A   Clear
10:15 AM 51.8 °F - 35.6 °F 54% 30.11 in 10.0 mi NNE 3.5 mph - N/A   Clear
10:35 AM 51.8 °F - 33.8 °F 50% 30.11 in 10.0 mi North 3.5 mph - N/A   Clear
10:55 AM 53.6 °F - 33.8 °F 47% 30.10 in 10.0 mi NNE 4.6 mph - N/A   Clear
11:15 AM 53.6 °F - 32.0 °F 44% 30.10 in 10.0 mi Calm Calm - N/A   Clear
11:35 AM 55.4 °F - 33.8 °F 44% 30.10 in 10.0 mi WSW 8.1 mph - N/A   Clear
11:55 AM 55.4 °F - 33.8 °F 44% 30.09 in 10.0 mi WSW 8.1 mph - N/A   Clear
12:15 PM 57.2 °F - 33.8 °F 41% 30.08 in 10.0 mi WSW 8.1 mph - N/A   Clear
12:35 PM 59.0 °F - 30.2 °F 34% 30.07 in 10.0 mi West 10.4 mph 16.1 mph N/A   Clear
12:55 PM 59.0 °F - 30.2 °F 34% 30.07 in 10.0 mi West 18.4 mph 21.9 mph N/A   Scattered Clouds
1:15 PM 60.8 °F - 30.2 °F 31% 30.05 in 10.0 mi WSW 12.7 mph 19.6 mph N/A   Scattered Clouds
1:35 PM 59.0 °F - 30.2 °F 34% 30.04 in 10.0 mi West 13.8 mph 23.0 mph N/A   Scattered Clouds
1:55 PM 60.8 °F - 28.4 °F 29% 30.03 in 10.0 mi WNW 11.5 mph 18.4 mph N/A   Clear
2:15 PM 60.8 °F - 28.4 °F 29% 30.02 in 10.0 mi West 13.8 mph 24.2 mph N/A   Clear
2:35 PM 62.6 °F - 26.6 °F 26% 30.00 in 10.0 mi West 11.5 mph 23.0 mph N/A   Clear
2:55 PM 60.8 °F - 26.6 °F 27% 30.00 in 10.0 mi West 13.8 mph 29.9 mph N/A   Scattered Clouds
3:15 PM 62.6 °F - 26.6 °F 26% 29.99 in 10.0 mi WSW 11.5 mph 24.2 mph N/A   Clear
3:35 PM 62.6 °F - 26.6 °F 26% 29.98 in 10.0 mi West 16.1 mph 26.5 mph N/A   Clear
3:55 PM 62.6 °F - 28.4 °F 27% 29.97 in 10.0 mi WSW 13.8 mph 18.4 mph N/A   Clear
4:15 PM 62.6 °F - 28.4 °F 27% 29.97 in 10.0 mi West 17.3 mph 25.3 mph N/A   Scattered Clouds
4:35 PM 62.6 °F - 28.4 °F 27% 29.97 in 10.0 mi WSW 16.1 mph 25.3 mph N/A   Scattered Clouds
4:55 PM 62.6 °F - 26.6 °F 26% 29.97 in 10.0 mi West 10.4 mph - N/A   Scattered Clouds
5:15 PM 60.8 °F - 26.6 °F 27% 29.97 in 10.0 mi West 11.5 mph 18.4 mph N/A   Scattered Clouds
5:35 PM 62.6 °F - 26.6 °F 26% 29.97 in 10.0 mi WNW 16.1 mph 21.9 mph N/A   Scattered Clouds
5:55 PM 60.8 °F - 26.6 °F 27% 29.98 in 10.0 mi West 12.7 mph 21.9 mph N/A   Scattered Clouds
6:15 PM 60.8 °F - 26.6 °F 27% 29.98 in 10.0 mi West 13.8 mph 21.9 mph N/A   Clear
6:35 PM 60.8 °F - 24.8 °F 25% 29.98 in 10.0 mi West 16.1 mph 23.0 mph N/A   Clear
6:55 PM 59.0 °F - 26.6 °F 29% 29.98 in 10.0 mi West 6.9 mph - N/A   Clear
7:15 PM 59.0 °F - 26.6 °F 29% 29.99 in 10.0 mi West 10.4 mph - N/A   Clear
7:35 PM 55.4 °F - 26.6 °F 33% 30.00 in 10.0 mi West 9.2 mph - N/A   Clear
7:55 PM 55.4 °F - 26.6 °F 33% 30.00 in 10.0 mi West 6.9 mph - N/A   Clear
8:15 PM 53.6 °F - 28.4 °F 38% 30.01 in 10.0 mi West 4.6 mph - N/A   Clear
8:35 PM 53.6 °F - 28.4 °F 38% 30.02 in 10.0 mi West 4.6 mph - N/A   Scattered Clouds
8:55 PM 51.8 °F - 30.2 °F 44% 30.02 in 10.0 mi West 5.8 mph - N/A   Overcast
9:15 PM 50.0 °F - 30.2 °F 47% 30.02 in 10.0 mi West 5.8 mph - N/A   Mostly Cloudy
9:35 PM 51.8 °F - 28.4 °F 41% 30.05 in 10.0 mi NNW 11.5 mph 28.8 mph N/A   Scattered Clouds
9:55 PM 50.0 °F - 28.4 °F 43% 30.06 in 10.0 mi NW 8.1 mph - N/A   Clear
10:15 PM 50.0 °F - 26.6 °F 40% 30.08 in 10.0 mi NNW 12.7 mph 20.7 mph N/A   Clear
10:35 PM 50.0 °F - 26.6 °F 40% 30.09 in 10.0 mi NNW 13.8 mph 19.6 mph N/A   Clear
10:55 PM 48.2 °F - 23.0 °F 37% 30.10 in 10.0 mi NNW 11.5 mph 19.6 mph N/A   Clear
11:15 PM 46.4 °F 41.1 °F 23.0 °F 40% 30.11 in 10.0 mi North 11.5 mph 21.9 mph N/A   Clear
11:35 PM 46.4 °F 40.7 °F 23.0 °F 40% 30.12 in 10.0 mi NNW 12.7 mph 18.4 mph N/A   Clear
11:55 PM 44.6 °F 39.2 °F 23.0 °F 43% 30.12 in 10.0 mi NNW 10.4 mph 18.4 mph N/A   Clear